Home   Weather   Akron   Past weeks

Flag for USA Past Weather in Akron, Ohio, USA — Yesterday and Last 2 Weeks

Now
56 °F

Passing clouds.


Feels Like: 56 °F
Forecast: 57 / 63 °F
Wind: No wind

Location: Akron Fulton International Airport

Current Time: Apr 29, 2017 at 5:24:33 am

Latest Report: Apr 29, 2017 at 4:54 am


Visibility: 10 mi

Pressure: 29.96 "Hg

Humidity: 87%

Dew Point: 52 °F

Location of AkronLocation

Past Weather in Akron — Graph

°F

Akron Temperature Yesterday

Maximum temperature yesterday: 65 °F (at 4:54 pm)
Minimum temperature yesterday: 47 °F (at 5:54 am)
Average temperature yesterday: 57 °F

High & Low Weather Summary for the Past Weeks

 TemperatureHumidityPressure
High82 °F (Apr 20, 4:54 pm)93% (Apr 20, 3:54 am)30.32 "Hg (Apr 20, 3:54 am)
Low36 °F (Apr 23, 4:54 am)19% (Apr 24, 11:54 am)29.57 "Hg (Apr 27, 12:54 pm)
Average62 °F59%29.99 "Hg
* Reported Apr 14 2:54 am — Apr 29 2:54 am, Akron, Weather by CustomWeather, © 2017

Note: Actual official high and low records may vary slightly from our data, if they occured in-between our weather recording intervals... More about our weather records

Advertising

Akron Weather History for the Previous 24 Hours

Scroll right to see more
 ConditionsComfort  
Time TempWeatherWind HumidityBarometerVisibility
2:54 am
Sat, Apr 29
56 °FPassing clouds.7 mph87%29.96 "Hg10 mi
1:54 am57 °FMostly cloudy.3 mph83%29.94 "Hg10 mi
12:54 am57 °FLight rain. Mostly cloudy.7 mph83%29.96 "Hg10 mi
11:54 pm
Fri, Apr 28
56 °FLight rain. Mostly cloudy.10 mph84%29.96 "Hg8 mi
10:54 pm57 °FRain. Mostly cloudy.12 mph83%30.00 "Hg4 mi
9:54 pm59 °FLight rain. Overcast.No wind75%30.01 "Hg9 mi
8:54 pm61 °FLight rain. Passing clouds.8 mph65%30.01 "Hg8 mi
7:54 pm63 °FOvercast.No wind58%30.03 "Hg10 mi
6:54 pm63 °FScattered clouds.6 mph60%30.01 "Hg10 mi
5:54 pm64 °FPassing clouds.7 mph58%30.02 "Hg10 mi
4:54 pm65 °FOvercast.5 mph54%30.03 "Hg10 mi
3:54 pm64 °FPartly sunny.3 mph54%30.01 "Hg10 mi
2:54 pm63 °FBroken clouds.No wind54%30.03 "Hg10 mi
1:54 pm63 °FSunny.12 mph52%30.03 "Hg10 mi
12:54 pm62 °FSunny.6 mph54%30.02 "Hg10 mi
11:54 am61 °FSunny.9 mph58%30.03 "Hg10 mi
10:54 am59 °FSunny.8 mph62%30.03 "Hg10 mi
9:54 am55 °FSunny.10 mph67%30.04 "Hg10 mi
8:54 am53 °FSunny.7 mph69%30.04 "Hg10 mi
7:54 am51 °FSunny.5 mph74%30.01 "Hg10 mi
6:54 am47 °FSunny.7 mph83%30.01 "Hg10 mi
5:54 am47 °FPassing clouds.6 mph80%29.98 "Hg10 mi
Weather by CustomWeather, © 2017

See weather overviewHow to use our weather pages